Location: Newark
(43.0967°N, 75.2319°W)
Time: 02:09:34
(UTC+00:00)

OTV 5 (USA 277) - Visible Passes

Search period start: 19 August 2019 00:00
Search period end: 29 August 2019 00:00
Orbit: 305 x 329 km, 54.5° (Epoch: 11 August)

Date Brightness Start Highest point End Pass type
(mag) Time Alt. Az. Time Alt. Az. Time Alt. Az.
19 Aug ? 08:01:32 10° N 08:02:29 11° NNE 08:03:27 10° NE visible
19 Aug ? 09:34:41 10° NW 09:37:17 55° NE 09:39:54 10° ESE visible
20 Aug ? 08:15:25 10° NNW 08:17:21 18° NNE 08:19:16 10° ENE visible
21 Aug ? 08:29:41 10° NW 08:32:05 34° NNE 08:34:33 10° E visible
22 Aug ? 08:45:19 25° NW 08:46:42 86° SW 08:49:20 10° SE visible
23 Aug ? 09:01:42 25° SSW 09:01:42 25° SSW 09:03:28 10° SSE visible
24 Aug ? 01:19:02 10° SW 01:21:18 50° S 01:21:18 50° S visible
25 Aug ? 01:33:35 10° WSW 01:36:11 48° NW 01:36:58 34° NNE visible
26 Aug ? 00:14:06 10° SSW 00:16:31 31° SE 00:18:56 10° ENE visible
26 Aug ? 01:48:42 10° W 01:50:52 22° NNW 01:52:00 17° N visible
27 Aug ? 00:28:21 10° SW 00:31:00 83° NW 00:33:39 10° NE visible
27 Aug ? 02:04:17 10° NW 02:05:41 13° NNW 02:06:35 12° N visible
28 Aug ? 00:43:11 10° W 00:45:38 31° NNW 00:48:03 10° NE visible
